Torna al catalogo

STARLINK-35035

AttivoComunicazioniVLEO
NORAD 65407·PAYLOAD·🇺🇸 United States

Lanciato Aug 31, 2025 da Cape Canaveral Space Force Station

Loading…

Prossimi Passaggi (prossime 24 ore)

TLE

AggiornatoSource: CelesTrak SupGP

Epoca: Sep 14, 2026, 21:35 UTC

1 65407C 25192D   26257.89979167  .00002565  00000+0  75815-4 0  2573
2 65407  53.1591  71.7334 0001349  74.2834  81.2052 15.34380172    11

Traccia STARLINK-35035 in tempo reale con AllMySat

Download on the App Store